Theta_e
310 314 317 317 317 321 326 327 325 322 323 324 324 324 327 331 336 335 335 335 336 337 333 332 332 332 329 328 323 324 319 312 305 306 306 306 306 306 305 305 305 306 314 321 322 320 319 317 317
311 314 315 316 320 327 327 325 326 319 324 325 325 325 326 333 334 337 337 337 337 336 333 333 332 329 328 324 321 320 315 306 306 307 307 306 306 305 305 305 306 316 319 322 320 319 317 319 317
311 313 314 314 319 325 326 323 317 319 323 324 324 324 330 334 335 336 336 337 337 334 333 333 331 327 322 320 320 317 311 306 306 307 306 306 305 306 305 306 311 312 315 318 318 318 318 317 316
312 313 313 314 317 318 324 324 317 317 321 323 323 327 332 334 335 336 337 336 337 332 332 332 329 326 323 319 319 315 307 306 307 307 306 305 306 305 306 310 312 311 315 314 313 315 312 313 313
312 312 312 315 317 317 317 319 321 318 317 322 322 325 331 335 336 335 336 336 336 332 331 329 329 326 323 319 318 313 306 307 308 307 306 306 305 305 310 308 307 308 307 311 311 308 310 309 306
311 311 311 313 314 315 315 319 321 317 318 318 321 328 331 335 334 335 335 336 335 331 331 331 327 320 318 319 317 311 306 307 308 307 305 306 305 310 309 307 306 306 310 309 310 313 313 312 310
309 307 309 312 313 313 315 318 318 318 318 316 321 323 333 335 333 335 335 335 332 330 331 332 326 321 320 319 317 310 307 308 308 307 305 305 308 310 307 307 306 312 310 310 315 314 315 312 312
311 305 310 308 309 311 313 317 318 318 318 319 320 326 331 334 334 335 335 335 331 330 330 328 326 323 320 319 317 310 307 308 308 307 306 305 310 309 307 306 310 312 310 315 315 310 311 308 312
310 306 307 308 309 310 313 311 316 316 316 316 321 326 328 332 335 335 335 333 331 330 328 327 323 323 322 319 317 310 307 308 308 307 306 306 310 308 308 306 312 311 310 312 311 309 307 310 311
307 304 306 307 309 309 310 311 312 312 312 314 327 328 329 331 335 333 333 332 331 329 329 327 324 318 320 318 317 310 308 308 308 307 306 306 310 308 308 306 312 310 311 312 310 305 307 308 309
308 305 307 309 310 311 310 310 311 310 310 313 314 331 331 331 332 329 329 330 330 329 328 326 326 324 321 317 316 311 308 308 309 307 306 306 310 308 308 307 312 311 313 312 308 305 307 309 310
308 308 309 310 311 311 309 311 309 310 310 311 312 315 325 328 324 326 334 332 330 329 328 327 326 326 323 318 316 312 309 308 309 307 306 307 310 309 308 308 312 311 313 312 307 305 307 310 311
307 308 310 310 310 311 311 308 308 309 310 311 311 315 318 326 324 321 328 331 329 329 328 327 326 326 324 318 316 313 311 309 309 308 305 306 310 308 309 308 312 312 312 312 305 305 307 309 310
307 308 308 309 309 309 309 309 308 309 310 310 310 311 317 321 324 322 326 329 330 330 328 327 326 326 323 318 315 314 312 309 309 308 305 306 310 308 309 308 312 312 312 312 304 305 306 309 312
309 306 305 307 308 307 310 308 305 310 310 309 310 310 315 317 323 323 320 325 328 326 327 328 327 326 323 319 315 315 313 310 309 309 306 306 310 309 308 308 313 312 312 312 306 305 306 309 312
308 306 306 307 307 308 308 309 308 310 309 309 309 310 310 313 315 317 322 320 327 326 327 328 326 327 324 320 316 315 314 311 310 309 307 306 309 309 308 308 314 313 312 311 307 307 310 311 311
307 302 303 304 306 307 306 308 308 310 310 308 309 309 309 311 314 315 319 322 322 325 325 329 328 325 323 321 317 315 314 312 310 310 308 306 309 310 308 308 314 314 313 310 307 308 311 310 314
304 305 305 305 305 306 306 307 307 310 308 308 309 309 309 310 311 313 315 318 322 325 326 330 330 328 321 321 318 316 315 312 310 310 309 305 308 310 308 308 314 315 313 311 310 312 311 309 317
306 306 306 306 306 306 306 306 307 308 308 308 309 310 308 309 310 311 313 315 317 325 326 331 330 328 323 322 319 316 314 313 311 310 309 306 307 310 308 308 311 315 314 314 311 315 314 316 316
299 300 303 306 307 307 307 306 307 307 307 308 309 310 311 309 310 311 312 314 315 319 323 328 329 328 324 321 319 316 314 313 312 311 310 307 306 309 309 309 309 315 314 315 314 313 315 316 316
296 299 300 303 304 306 307 308 307 305 306 308 310 310 311 311 311 311 310 313 314 318 322 320 326 327 323 321 321 318 315 314 312 311 310 309 305 308 310 309 309 313 315 315 315 315 315 314 316
293 296 300 302 304 307 306 310 308 306 306 306 308 308 309 310 311 311 310 310 314 316 319 319 321 326 324 321 321 319 317 315 313 312 311 310 306 307 310 309 309 310 314 315 315 315 316 314 315
294 295 297 299 303 305 306 310 309 307 308 308 308 308 309 309 310 311 311 310 312 314 316 320 318 323 327 321 320 321 319 316 314 313 311 310 307 306 309 309 309 309 313 314 315 315 315 316 315
295 296 298 299 303 306 305 308 308 308 308 308 308 309 310 310 309 311 311 311 310 312 314 319 320 321 325 325 320 321 320 318 315 313 312 311 309 306 308 310 309 310 310 315 315 316 315 316 316
295 296 298 301 305 304 304 307 308 306 306 307 307 308 310 311 312 310 310 310 310 310 314 319 320 322 324 325 321 319 321 319 317 314 313 312 310 306 307 310 309 310 310 314 315 316 315 316 316
294 295 297 303 301 302 304 307 307 307 308 308 308 308 308 311 312 312 312 310 310 310 311 315 318 321 324 325 324 318 321 321 319 316 313 312 311 308 306 309 309 310 310 312 315 316 315 316 316
296 299 298 301 300 302 305 306 306 306 306 306 307 308 307 308 312 311 311 311 310 310 309 310 315 320 322 323 324 320 318 321 320 317 314 313 312 310 306 308 310 309 310 312 315 315 315 315 316
296 297 302 302 302 303 307 308 307 306 306 306 306 306 307 309 311 312 311 312 311 310 310 309 310 314 319 322 322 320 318 320 320 319 316 314 312 310 305 307 310 309 310 311 314 315 315 315 315
295 299 301 303 304 303 303 307 305 306 306 305 305 306 306 309 310 311 313 313 312 311 310 309 310 314 320 323 323 320 318 319 320 320 317 314 313 311 306 306 309 310 310 311 313 315 315 315 315
296 300 300 302 302 304 305 305 306 306 305 305 305 306 307 306 306 311 313 314 312 311 310 310 310 316 318 321 321 321 319 318 319 320 318 315 314 311 307 306 308 310 310 310 312 314 315 315 315
Wind_Speed
5 3 4 1 3 3 3 8 4 7 3 4 4 6 9 6 2 4 15 16 13 11 18 15 13 12 7 3 2 3 2 4 5 6 6 6 7 7 7 6 6 7 8 9 10 9 10 11 11
1 1 0 1 3 1 5 8 8 3 5 6 5 4 4 3 6 17 14 11 12 12 19 16 13 10 5 4 4 4 3 4 5 5 6 6 6 7 7 8 8 8 10 11 10 12 12 11 11
1 1 1 3 3 5 5 2 6 2 7 5 3 5 4 6 15 22 15 17 13 14 18 16 13 8 6 5 5 4 4 4 4 5 6 6 7 7 7 8 9 9 11 12 12 11 11 12 10
2 3 3 3 7 8 7 13 11 2 4 3 4 4 7 5 17 13 21 18 16 14 17 16 8 7 5 6 6 4 3 3 5 6 6 6 8 8 8 9 10 11 11 13 14 14 14 14 12
2 3 0 3 7 8 8 17 13 1 2 4 7 4 6 8 11 15 24 18 15 18 17 11 8 6 6 6 6 4 3 3 5 5 5 7 8 7 8 9 11 13 14 15 14 14 18 22 18
3 1 1 5 7 9 8 18 11 6 3 2 5 9 5 9 14 25 21 19 14 18 16 14 10 6 7 8 6 4 3 3 4 4 5 7 7 7 9 10 13 15 16 15 19 17 18 20 20
3 3 5 5 6 9 6 19 5 2 1 4 6 6 11 15 18 23 20 18 15 18 17 16 13 10 8 8 6 4 4 4 3 4 5 6 7 9 10 11 14 16 15 17 19 15 14 15 15
4 3 3 4 4 9 9 6 3 2 3 4 6 5 6 22 20 25 20 17 18 15 15 15 14 11 8 8 7 5 4 4 3 3 4 5 8 9 11 12 13 14 15 18 14 14 14 12 16
3 1 4 5 7 8 21 4 4 2 3 4 2 4 6 23 23 29 24 22 20 18 18 15 16 15 10 10 9 7 6 4 3 3 4 5 9 9 10 10 12 13 13 14 14 13 12 14 14
5 4 8 7 4 4 10 2 6 7 6 4 8 8 12 22 25 32 31 27 24 22 20 17 15 14 12 12 11 9 7 6 4 3 4 6 8 8 8 8 12 15 13 13 14 17 17 16 16
6 6 5 12 21 17 8 14 5 3 5 6 3 17 21 22 23 32 29 27 27 24 21 20 17 14 11 12 12 10 8 7 5 4 5 6 7 7 8 10 12 13 12 14 16 18 18 21 22
7 13 16 9 21 24 5 10 10 7 15 15 11 8 18 23 24 26 27 28 29 28 25 22 20 19 13 12 13 11 9 7 5 4 5 6 6 8 8 9 11 11 12 13 17 18 18 24 23
9 7 20 28 27 27 23 12 11 15 22 20 15 11 18 24 24 23 26 27 28 28 28 25 23 23 18 14 14 12 10 9 7 5 5 6 6 8 8 9 10 11 13 14 17 18 19 24 23
14 21 21 20 21 17 10 17 15 15 22 26 29 24 20 22 24 23 25 30 31 30 31 29 26 26 21 16 16 13 11 9 9 7 6 6 7 8 8 9 10 11 12 14 17 18 19 26 25
15 9 11 15 11 7 14 15 10 35 28 30 31 27 25 25 24 26 26 31 34 31 32 33 28 27 24 20 17 15 13 11 9 8 7 7 8 8 8 10 9 13 12 14 17 20 21 24 28
6 6 5 4 7 11 16 23 7 23 31 35 39 38 32 32 30 28 27 28 32 32 35 32 31 29 27 23 20 18 16 13 11 10 9 9 9 8 9 11 10 14 12 15 16 19 22 22 23
3 6 11 13 13 9 12 15 15 30 26 27 34 39 41 33 35 32 29 29 30 31 33 34 34 30 29 26 22 20 18 16 14 12 11 10 10 10 10 12 11 14 14 16 22 21 21 22 23
5 7 10 12 5 9 16 19 14 15 20 24 30 34 38 40 37 37 33 32 30 28 35 34 36 31 30 28 25 23 21 19 17 14 13 12 12 11 11 14 13 14 15 18 22 23 23 24 24
17 20 25 20 18 21 21 18 16 22 25 20 25 28 33 43 42 38 39 36 34 30 38 39 40 36 33 34 32 29 28 24 21 17 15 14 14 12 13 16 15 16 16 16 22 21 23 24 22
15 17 19 18 12 13 21 24 22 16 15 25 29 34 30 26 37 40 45 43 40 38 40 42 43 39 40 38 34 31 27 24 20 19 18 17 16 15 14 17 17 17 18 16 18 19 18 19 15
17 17 18 19 19 22 21 27 18 12 13 22 32 36 39 36 36 33 37 51 47 45 44 44 45 43 42 41 38 33 28 26 27 25 22 20 18 17 16 18 18 18 17 15 13 15 16 16 17
24 12 19 19 13 12 11 14 18 11 17 18 29 32 35 40 41 41 39 47 56 50 44 42 46 46 43 43 43 40 38 37 34 27 24 22 20 19 18 18 18 19 19 16 13 12 12 17 17
27 20 21 21 20 15 17 13 23 13 24 30 20 31 38 41 47 48 46 40 53 52 49 46 45 47 47 45 44 43 41 36 30 28 27 24 23 21 20 19 20 19 19 18 15 13 12 12 16
17 19 23 23 14 14 27 16 15 19 32 13 19 28 37 40 47 51 49 47 48 52 52 51 50 48 49 48 46 46 44 39 34 33 32 29 26 24 23 21 21 20 18 18 16 14 11 9 14
13 15 8 6 11 20 15 14 25 8 11 21 20 26 39 47 47 48 54 50 53 55 56 54 53 52 50 51 48 45 46 42 36 34 35 33 31 29 26 24 24 22 19 18 16 15 12 11 14
23 11 7 10 10 20 12 14 20 15 22 41 38 38 32 36 44 46 49 55 54 56 60 57 55 54 53 52 50 44 47 45 40 36 34 33 31 28 26 25 23 23 21 20 18 17 15 15 13
3 7 14 13 23 14 7 15 25 24 27 21 24 34 32 32 23 38 47 53 56 54 60 60 57 56 55 53 51 46 47 47 45 40 35 34 31 28 27 26 25 25 23 21 19 18 17 15 12
16 11 5 6 8 11 8 15 10 11 24 23 28 21 33 40 40 28 39 48 52 55 53 60 59 58 56 53 52 48 46 47 46 40 37 35 32 31 30 29 27 26 25 23 22 21 19 16 13
13 9 6 8 7 6 13 9 6 15 4 5 4 10 9 14 22 29 27 36 48 52 53 58 58 58 57 55 54 48 46 46 45 42 39 36 33 33 32 31 29 28 28 26 24 22 20 18 15
15 7 9 5 8 6 7 20 3 7 6 6 5 9 13 13 11 20 26 27 38 48 50 54 56 57 56 55 54 50 45 46 46 44 41 37 36 34 32 32 30 29 29 27 26 24 22 20 19
Wind_Direction
299 302 314 5 49 70 251 258 251 280 60 53 31 58 119 83 44 151 152 190 202 184 169 162 167 167 171 179 190 166 76 40 44 42 41 37 32 23 18 10 4 7 20 25 21 4 16 1 0
322 6 26 109 104 57 267 244 240 346 119 92 43 28 85 114 116 133 156 192 187 183 171 164 172 172 173 176 148 130 79 59 53 50 47 41 35 27 20 18 21 37 35 27 20 13 7 1 355
338 67 217 132 186 193 236 2 114 130 80 53 76 50 82 108 133 147 198 177 187 168 165 163 174 157 154 156 142 123 87 75 62 51 43 31 31 27 20 18 29 24 39 31 22 13 9 8 359
43 161 238 116 249 258 257 297 292 84 65 120 71 67 87 127 148 160 172 182 186 164 168 171 168 158 158 151 149 123 108 84 59 50 35 30 30 23 17 22 32 34 39 33 26 23 17 14 12
306 253 111 218 241 267 266 261 255 338 111 220 156 141 104 130 145 168 174 184 187 165 171 181 170 168 179 170 154 133 108 87 64 49 37 35 35 29 21 35 41 38 42 35 30 30 38 34 35
301 233 74 237 256 262 286 307 230 169 190 33 179 115 151 186 163 167 177 179 188 168 178 182 176 167 168 164 157 134 122 94 65 54 44 48 46 41 44 46 48 50 43 41 40 37 36 36 46
154 91 226 231 262 290 262 307 298 319 143 261 229 104 145 176 164 165 178 182 181 173 179 188 187 180 166 163 156 149 143 103 74 60 56 60 59 56 59 55 59 56 48 46 33 29 28 37 43
236 108 248 233 237 278 290 323 294 16 313 1 224 154 165 186 173 168 172 186 173 179 182 192 193 196 192 177 169 170 155 123 87 69 68 74 69 65 68 60 67 56 50 50 40 34 36 45 44
236 55 243 229 215 253 283 6 308 173 208 314 347 149 181 181 171 174 166 167 173 179 185 193 202 197 194 189 182 181 163 140 120 95 84 84 77 77 73 61 64 54 49 49 40 42 48 50 46
164 176 225 213 216 273 291 297 319 347 342 313 92 138 167 178 185 182 175 179 178 183 191 192 200 191 183 189 188 187 171 156 141 116 93 85 82 87 79 68 63 54 56 51 46 61 62 59 63
213 206 244 278 287 301 293 309 320 335 297 259 156 178 181 189 194 195 195 193 185 185 189 190 193 202 188 190 192 192 175 166 158 137 110 105 97 103 93 76 68 61 57 51 58 70 74 75 78
268 246 245 269 281 295 279 279 291 254 251 285 282 249 222 211 207 200 199 194 192 189 192 192 189 202 211 201 193 196 186 168 164 149 128 116 108 106 99 84 72 67 62 59 64 76 85 83 77
281 270 264 266 267 264 285 257 245 260 266 263 277 265 236 223 218 214 206 197 197 193 191 192 193 200 221 209 203 196 194 182 171 162 145 130 122 117 112 96 82 76 70 68 70 82 89 87 77
312 310 294 294 294 298 273 269 246 251 260 261 259 258 237 224 223 212 208 205 201 197 195 191 191 200 216 210 206 201 199 189 178 171 159 143 133 132 129 109 95 90 78 72 78 91 94 92 84
315 312 312 284 267 254 292 276 221 249 251 252 249 249 228 226 219 223 222 213 210 207 199 196 192 201 213 211 209 203 204 198 187 178 168 158 148 148 143 121 110 98 89 81 86 97 101 93 89
329 310 305 272 220 240 204 251 221 246 242 240 244 242 240 229 228 231 224 222 217 217 203 201 200 200 211 211 209 205 204 204 194 184 177 169 160 160 154 133 124 107 95 92 90 101 100 95 94
265 256 249 283 239 263 202 256 256 242 248 245 244 243 240 233 224 225 227 226 222 220 209 203 213 207 208 211 209 207 205 205 199 191 184 176 169 169 159 144 136 119 110 105 95 100 104 106 102
289 287 288 276 301 239 258 257 264 251 232 245 247 249 243 237 230 222 224 227 223 216 211 209 213 217 208 208 208 205 206 207 202 195 189 182 178 177 165 153 150 132 125 115 105 98 97 108 106
283 274 275 283 285 300 290 285 263 240 249 259 262 256 248 240 236 229 221 225 224 212 210 211 214 215 211 207 206 205 206 204 202 196 193 187 185 181 172 165 161 149 140 122 115 109 104 103 102
303 299 298 300 309 266 280 272 273 245 229 224 242 255 253 241 233 231 219 219 221 215 210 211 216 215 212 211 210 211 207 206 207 201 196 192 188 184 179 174 168 162 155 147 130 131 124 122 123
307 294 299 289 312 301 290 281 265 266 247 233 237 245 250 247 242 230 222 216 219 216 209 213 216 215 209 209 209 209 206 204 203 201 200 194 191 188 184 181 175 170 169 157 139 139 147 148 146
292 298 304 298 297 277 352 284 255 242 247 245 239 239 242 244 241 238 231 220 216 217 215 216 216 216 212 211 207 208 207 205 209 204 199 196 195 191 188 185 182 177 173 171 161 154 153 154 162
275 287 281 274 270 285 268 272 265 226 246 241 241 238 239 236 238 234 230 221 218 217 215 215 217 217 217 214 210 208 210 213 212 201 201 198 197 194 191 188 186 183 177 172 170 165 163 166 180
275 287 279 267 264 248 249 227 258 229 236 257 243 240 243 242 234 234 233 224 218 216 215 213 214 216 217 220 215 209 212 211 207 203 201 199 198 196 193 189 187 188 184 175 172 171 173 175 180
331 322 283 243 216 240 236 228 240 262 255 239 244 240 237 240 239 229 229 224 218 214 212 211 214 214 216 219 220 212 213 214 212 207 203 199 198 197 195 190 188 189 187 179 175 171 168 157 159
287 255 265 280 243 259 238 236 244 233 247 263 263 264 268 244 233 232 229 224 220 217 211 210 213 214 213 218 222 217 214 213 213 211 208 205 204 199 195 192 189 189 187 182 177 172 165 158 169
269 244 232 250 264 277 274 253 256 256 264 269 268 261 254 252 234 233 226 223 220 218 212 210 212 215 215 216 220 218 214 212 212 209 209 207 204 199 196 193 190 190 187 184 178 176 169 166 170
202 262 291 219 278 257 270 261 252 230 232 238 248 252 246 258 255 238 228 222 221 219 217 212 214 214 216 215 218 218 215 212 212 208 207 205 202 197 195 193 191 190 188 186 181 180 172 170 166
309 285 262 285 242 253 260 265 221 240 297 351 303 337 322 285 250 233 228 224 221 216 214 209 209 211 212 210 216 216 214 212 211 208 207 205 201 198 196 194 192 192 189 186 185 185 180 175 168
268 298 287 272 310 270 243 255 280 30 62 50 359 341 327 318 296 231 217 220 214 211 209 207 205 207 212 211 214 215 212 210 208 206 206 205 201 199 196 194 194 193 191 187 187 186 184 182 174